Weather History for LHKE - October, 2011

Change the Weather History Date:

Monday, October 31, 2011

  Actual Average Record
Temperature  
Mean Temperature 48 °F -  
Max Temperature 60 °F - - ()
Min Temperature 37 °F - - ()
Degree Days  
Heating Degree Days 16    
Moisture  
Dew Point 39 °F    
Average Humidity 76    
Maximum Humidity 93    
Minimum Humidity 42    
Precipitation  
Precipitation 0.00 in - - ()
Sea Level Pressure  
Sea Level Pressure 30.21 in    
Wind  
Wind Speed 1 mph ()    
Max Wind Speed 7 mph    
Max Gust Speed -    
Visibility 3.6 miles    
Events Fog    
T = Trace of Precipitation, MM = Missing Value Source: Averaged Metar Reports

Daily Weather History Graph

Daily Weather History Graph

Search for Another Location

Airport or City:

Trip Planner

Search our weather history database for the weather conditions in past years. The results will help you decide how hot, cold, wet, or windy it might be!

Date:

Astronomy

Oct. 31, 2011 Rise Set
Actual Time 6:21 AM CET 4:27 PM CET
Civil Twilight 5:49 AM CET 4:58 PM CET
Nautical Twilight 5:13 AM CET 5:34 PM CET
Astronomical Twilight 4:38 AM CET 6:10 PM CET
Moon 11:24 AM CET (10/31) 8:34 PM CET (10/31)
Length of Visible Light 11h 09m
Length of Day
10h 06m
Waxing Crescent, 27% of the Moon is Illuminated
Oct 31
Waxing Crescent
Nov 2
First Quarter
Nov 10
Full
Nov 18
Last Quarter
Nov 25
New

Hourly Weather History & Observations

Time (CET) Temp. Dew Point Humidity Pressure Visibility Wind Dir Wind Speed Gust Speed Precip Events Conditions
12:15 AM 44.6 °F 41.0 °F 87% 30.24 in 5.0 mi Calm Calm - N/A   Unknown
12:45 AM 44.6 °F 39.2 °F 81% 30.24 in 5.0 mi Calm Calm - N/A   Unknown
1:15 AM 44.6 °F 41.0 °F 87% 30.24 in 4.3 mi Calm Calm - N/A   Unknown
1:45 AM 44.6 °F 41.0 °F 87% 30.24 in 3.7 mi Calm Calm - N/A   Unknown
2:15 AM 42.8 °F 39.2 °F 87% 30.24 in 3.7 mi Calm Calm - N/A   Unknown
2:45 AM 42.8 °F 39.2 °F 87% 30.21 in 3.7 mi Calm Calm - N/A   Unknown
3:15 AM 41.0 °F 39.2 °F 93% 30.21 in 3.7 mi Calm Calm - N/A   Unknown
3:45 AM 41.0 °F 39.2 °F 93% 30.21 in 3.7 mi Calm Calm - N/A   Unknown
4:15 AM 39.2 °F 37.4 °F 93% 30.21 in 3.7 mi Calm Calm - N/A   Unknown
4:45 AM 39.2 °F 37.4 °F 93% 30.21 in 3.7 mi Calm Calm - N/A   Unknown
5:15 AM 41.0 °F 39.2 °F 93% 30.21 in 3.7 mi Calm Calm - N/A   Unknown
5:45 AM - - N/A% - 3.1 mi Variable 4.5 mph - N/A   Mist
6:15 AM 41.0 °F 37.4 °F 87% 30.24 in 2.5 mi Calm Calm - N/A   Mostly Cloudy
6:45 AM 41.0 °F 37.4 °F 87% 30.24 in 2.5 mi Calm Calm - N/A   Mostly Cloudy
7:15 AM 42.8 °F 39.2 °F 87% 30.24 in 2.5 mi SE 2.2 mph - N/A   Mostly Cloudy
7:45 AM 44.6 °F 41.0 °F 87% 30.24 in 2.5 mi SE 2.2 mph - N/A   Mostly Cloudy
8:15 AM 46.4 °F 42.8 °F 87% 30.24 in 2.5 mi Calm Calm - N/A   Mostly Cloudy
8:45 AM - - N/A% - 3.1 mi Variable 4.5 mph - N/A   Mist
9:15 AM 50.0 °F 42.8 °F 76% 30.24 in 3.1 mi SSE 4.5 mph - N/A   Mostly Cloudy
9:45 AM 53.6 °F 42.8 °F 67% 30.24 in 3.7 mi SSE 4.5 mph - N/A   Unknown
10:15 AM 55.4 °F 41.0 °F 58% 30.24 in 3.7 mi South 6.7 mph - N/A   Unknown
10:45 AM 55.4 °F 42.8 °F 63% 30.24 in 5.0 mi South 4.5 mph - N/A   Unknown
11:15 AM 59.0 °F 41.0 °F 51% 30.24 in 5.0 mi South 4.5 mph - N/A   Unknown
11:45 AM - - N/A% - 5.0 mi Variable 4.5 mph - N/A   Clear
12:15 PM 57.2 °F 39.2 °F 51% 30.21 in - SE 4.5 mph - N/A   Clear
12:45 PM 60.8 °F 39.2 °F 45% 30.21 in - SSE 2.2 mph - N/A   Clear
1:15 PM 59.0 °F 37.4 °F 45% 30.21 in - SE 4.5 mph - N/A   Clear
1:45 PM 60.8 °F 37.4 °F 42% 30.18 in - SE 2.2 mph - N/A   Clear
2:15 PM 59.0 °F 37.4 °F 45% 30.18 in - ESE 4.5 mph - N/A   Clear
2:45 PM - - N/A% - 3.1 mi Variable 4.5 mph - N/A   Clear
3:15 PM 60.8 °F 37.4 °F 42% 30.18 in - SSE 2.2 mph - N/A   Clear
3:45 PM 57.2 °F 37.4 °F 48% 30.18 in - SSE 2.2 mph - N/A   Clear
4:15 PM 53.6 °F 39.2 °F 58% 30.18 in - South 2.2 mph - N/A   Clear
4:45 PM 50.0 °F 39.2 °F 66% 30.18 in - South 2.2 mph - N/A   Clear
5:15 PM 46.4 °F 37.4 °F 71% 30.18 in - SE 2.2 mph - N/A   Clear
5:45 PM - - N/A% - - North - - N/A   Unknown
6:15 PM 44.6 °F 37.4 °F 76% 30.18 in 5.0 mi Calm Calm - N/A   Clear
6:45 PM 42.8 °F 37.4 °F 81% 30.18 in 5.0 mi Calm Calm - N/A   Clear
7:15 PM 41.0 °F 35.6 °F 81% 30.18 in 5.0 mi Calm Calm - N/A   Clear
7:45 PM 41.0 °F 37.4 °F 87% 30.18 in 5.0 mi Calm Calm - N/A   Clear
8:15 PM 39.2 °F 35.6 °F 87% 30.21 in 5.0 mi Calm Calm - N/A   Clear
8:45 PM - - N/A% - - North - - N/A   Unknown
9:15 PM 37.4 °F 35.6 °F 93% 30.21 in 3.1 mi NE 2.2 mph - N/A   Clear
9:45 PM 37.4 °F 35.6 °F 93% 30.21 in 3.1 mi North 2.2 mph - N/A   Clear
10:15 PM 37.4 °F 33.8 °F 87% 30.21 in 2.5 mi NW 2.2 mph - N/A   Clear
10:45 PM 37.4 °F 33.8 °F 87% 30.21 in 2.5 mi NW 2.2 mph - N/A   Clear
11:15 PM 37.4 °F 35.6 °F 93% 30.21 in 1.9 mi Calm Calm - N/A   Clear
11:45 PM - - N/A% - 1.9 mi North - - N/A Fog Fog